Timeline UpdatesTrip UpdatesNews PostsPvt Posts♥♥Travel TipsAdmin PostsConv PostsFollowed PostsChat RequestsBlog PostsPNR Posts

Disclaimer
Search
 
 
Fri Dec 19, 2014 17:28:23 ISTHomeTrainsΣChainsAtlasPNRForumGalleryNewsFAQTripsMembersLoginFeedback
No Recent News for this Train
Other Trains in the News **new
Latest...
.
Sun Nov 03, 2013 (10:46PM)
⇐ Return Journey: Train# 13352

13351/Dhanbad-Alappuzha Express

Time-Table HAS CHANGED.
Sep 13 2014 (11:08AM)
Change Departure Station:
Change Arrival Station:
Post a Train Travel TipPost a Train Travel Tip **new
Post a Comment/Question/Picture/VideoPost a Comment/Question/Picture/Video
Pantry/Catering
✓ Pantry Car Avbl
✓ Catering Avbl
Average
Loco/Rake Reversals
MAS/Chennai Central (12); VSKP/Visakhapatnam Junction (8); SRR/Shoranur Junction (7);
RSA - Rake Sharing
Rake/Coach Composition
LOCO-SLR-GS-S1-S2-S3-S4-S5-; S6-S7-S8-PC-A1-B1-B2*-A2*-ST1*-ST2*-; ST3*-ST4*-ST5*-GS*-SLR*;(DHN-VSKP, MAS-SRR) ; *Tata portion attached at ROU; CC reverses for VSKP-MAS & SRR-ALLP)
Loco
Official Loco DHN - ROU :- WAM-4 ROU - VSKP :- WDM-3A/WDG-3A...
Read more...
(Twins) VSKP - MAS :- WAM-4/WAP-1 MAS - ALLP:- WAM-4/WAP-4
News    PNR    Forum    Time-Table    Availability    Fare Chart    Map    Arr/Dep History    Trips    Gallery    ΣChains    X/O    Timeline    
Travel Time: 53h 15m    86 halts    Distance: 2371 km    Avg Speed: 44 km/hr
Type: Mail/Express
Zone: ECR/East Central
Departs @ 15:05 (Avg 19m late)
Platform# 3
SMTWTFS
Ranchi Junction/RNC 
Arrives @ 20:20 +2 nights (Avg 10m late)
Platform# 3
SMTWTFS
Alappuzha/ALLP 

86 halts. 383 intermediate Stations between Ranchi Junction and Alappuzha

Show ALL intermediate Stations  Show Old Time-Table

#TrkCodeStation NameX/OArrivesAvgDepartsAvgHaltPFDay#KmSpeedElevZoneAddress
1/==/DHNDhanbad Junction (9)  -10:50+151-162.230235mECR2319801. Div. HQ ECR, Jharkhand
2/==/KTHKatrasgarh (1)  11:18+211:20+22m11-148.434198mECRKatrasgarh, Jharkhand
3/--/CRPChandrapura Junction (3)X  11:56+211:58+22m11-127.935227mECR06549-242555, Jharkhand
4/==/BKSCBokaro Steel City (3)  12:25+612:35+310m21-112.371245mSER06542-253861, Jharkhand
5/==/PNWPundhag (3)  12:49+412:50+51m21-95.763291mSERDist - Puruliya -723215, West Bengal
6/==/JAAJhalida (3)  13:12+1113:13+121m--1-72.438297mSERJhalida, West Bengal
7/==/MURIMuri Junction (3)X  13:33+1513:35+162m21-59.748254mSER06522-222444, Jharkhand
8/==/RNCRanchi Junction (6)»X  14:50+1915:05+1915m310.028632mSERDiv HQ SER, Jharkhand
9/==/HTEHatia (3)  15:20+2015:25+205m--17.078657mSER2788599, Jharkhand
10/--/GBXGovindpur Road (3)  15:58 15:57+2716:00 15:58+282 1m--148.882577mSERkhunti, Jharkhand
11/--/BANOBano (2)  16:45 16:37+3016:46 16:38+311m--1101.936452mSERDist. Gumla, Jharkhand
12/--/NXNNuagaon  17:49+1217:50+151m--1144.052218mSERKeonjhar, Odisha
13/-=/BNDMBondamunda (2)  18:14+718:15+71m--1164.826213mSERRourkela, Odisha
14/--/ROURourkela Junction (5)X  18:30+1219:00+2230m21171.364198mSERRourkela, Odisha
15/==/GPRaj Gangpur (3)O  19:28+2619:29+281m11201.169237mSERRaj Ganpur, Odisha
16/==/BMBBamra (3)X  19:59+3120:00+311m--1235.755259mSERBamra PH : 06642-229268, Odisha
17/==/JSGJharsuguda Junction (5)  20:40+2120:50+1910m11272.269236mSERJharsuguda, Odisha
18|==!RGLRengaliO  21:15 21:13+4321:17 21:15+442m--1298.669208mECoRState Highway 10, Odisha
19|==|SBPDSambalpur Road  21:35 21:33-21:37 21:35-2m--1319.49161mECoRSambalpur, Odisha
20|--|SBPSambalpur Junction (3)X  21:45+4321:55+4410m--1320.964159mECoRSambalpur, Odisha
21|--|ATSAttabira  22:18+5222:20+542m--1345.377164mECoRBargarh, Odisha
22|--|BRGABargarh Road (3)XO  22:34+5822:39+1:025m--1363.472185mECoRBargarh, Odisha
23|--|BRPLBarpaliX  22:57 22:55+1:0322:59 22:57+1:092m--1382.665178mECoRBarpali, Odisha
24|--|BLGRBalangir (3)  23:50+1:1323:55+1:225m--1439.747210mECoRBolangir, Odisha
25|--|BUDMBadmal  00:50+1:0700:52+1:082m--2483.123209mECoRDumerbahal Rd, Odisha
26|--|TIGTitlagarh Junction (3)XO  01:45+3801:55+4210m--2503.056212mECoRTitlagarh, Odisha
27%==%KSNGKesinga (1)XO  02:10+4302:12+432m12517.065183mECoRKesinga, Odisha
28%==%RPRDRupra RoadO  02:27+4602:29+452m--2533.244233mECoRKalahandi, Odisha
29%==%NRLRNorla RoadO  02:38+4602:40+462m--2539.860247mECoRKalahandi, Odisha
30%==%AMBAmbodala  03:05+4503:07+452m--2564.839374mECoRState Highway 6, Odisha
31%==%MNGDMunigudaX  03:45+3503:47+352m--2589.841335mECoRMuniguda, Odisha
32%==%THVTherubaliO  04:40+2004:42+242m--2625.831270mECoRRayagada, Odisha
33%==%SPRDSingapuram Road (2)X  05:00+2505:02+292m--2635.215248mECoRJaykaypur, Odisha
34%==%RGDARayagada (3)O  05:40+1305:55+1415m--2644.473229mECoRRayagada ph.no 06856-222407, Odisha
35%==%PVPTParvatipuram TownXO  06:32+006:34+02m--2689.725121mECoRParvatipuram, Andhra Pradesh
36%==%PVPParvatipuram (3)X  06:38+1906:40+192m--2691.372122mECoRParvatipuram, Andhra Pradesh
37%==%VBLBobbili Junction (2)X  07:00+2007:03+193m22715.249137mECoRBobbili, Andhra Pradesh
38%==%VZMVizianagaram Junction (5)  08:15 08:10+1208:20 08:15+215m--2769.58463mECoRVizianagaram, Andhra Pradesh
39/==/KTVKottavalasa Junction (5)X  08:48 08:40+3708:50 08:42+382m--2804.56058mECoRVizianagaram District, Andhra Pradesh
40/==/SCMSimhachalam (2)X  09:17 09:00-09:19 09:02-2m--2822.6927mECoRVisakhapatnam, Andhra Pradesh
41/==/VSKPVisakhapatnam Junction (8)XO10:05 09:55+1110:25 10:15+1520m32830.73311mECoRVishakhapatnam 530001, Andhra Pradesh
42/==/DVDDuvvada (4)X  10:55 10:45+1510:57 10:47+162m12847.04246mECoRVishakhapatnam District, Andhra Pradesh
43/==/AKPAnakapalle (3)  11:10+1811:11+201m22863.07130mSCRAnakapalle ph.no . 08924-221698, Andhra Pradesh
44/==/YLMElamanchili (2)X  11:31+2211:32+261m--2886.77123mSCRVisakhapatnam District, Andhra Pradesh
45/==/NRPNarsipatnam Road (2)  11:47+3511:48+351m--2904.58418mSCRVisakhapatnam District, Andhra Pradesh
46/==/TUNITuni (2)X  12:04+4112:05+421m12926.87124mSCRTuni ph.no. 08854-252172, Andhra Pradesh
47/==/ANVAnnavaram (3)  12:19+4712:20+491m12943.47627mSCREast Godavari District, Andhra Pradesh
48/==/GLPGollaproluX  12:35+5012:36+511m--2962.54919mSCRGollaprollu, Andhra Pradesh
49/==/PAPPithapuram (2)  12:43+5012:44+541m--2968.27222mSCREast Godavari District, Andhra Pradesh
50/==/SLOSamalkot Junction (3)  12:54+5812:55+581m32980.38418mSCRSamalkot, Andhra Pradesh
51/==/APTAnaparti (3)  13:14+1:0613:15+1:071m--21006.83821mSCREast Godavari District, Andhra Pradesh
52/==/DWPDwarapudi (3)  13:21+1:0713:22+1:071m--21010.62420mSCREast Godavari District, Andhra Pradesh
53/==/RJYRajahmundry (3)  14:11+4214:16+445m121030.53623mSCRRajahmundry ph.no. 0883-2420541, Andhra Pradesh
54/==/KVRKovvur (3)  14:29+4814:30+481m321038.36125mSCRWest Godavari, Andhra Pradesh
55/==/NDDNidadavolu Junction (3)  14:44+5314:45+541m221052.67120mSCRNidadavolu jtn ph.no. 08813-210325, Andhra Pradesh
56/==/TDDTadepalligudem (3)X  15:02+5515:03+561m321072.68718mSCRTadepalligudem, Andhra Pradesh
57/==/EEEluru (3)X  15:36+1:0115:37+1:021m321120.43319mSCREluru Ph.no. 08812 226401., Andhra Pradesh
58/==/BZAVijayawada Junction (10)X  17:25+3417:45+3420m--21179.86924mSCRVijayawada 520001, Andhra Pradesh
59/==/TELTenali Junction (5)O  18:12+4718:13+491m321211.06616mSCRTel: 08644-227834, Andhra Pradesh
60/==/NDONidubrolu (3)  18:33+5518:34+561m--21233.0659mSCRNidubrolu, Andhra Pradesh
61/==/BPPBapatla (3)X  18:53+5718:54+581m--21253.67510mSCRBapatla, Andhra Pradesh
62/==/CLXChirala (4)X  19:06+1:0019:07+1:021m--21268.7768mSCRChirala, Andhra Pradesh
63/==/CJMChinnaganjam (3)X  19:23+1:0519:24+1:061m--21289.0369mSCRChinna Ganjam, Andhra Pradesh
64/==/OGLOngole (3)  20:12+5020:13+521m321318.07712mSCROngole, Andhra Pradesh
65/==/SKMSingarayakonda (2)X  20:35+1:0020:36+1:011m221346.39126mSCRSingarayakonda, Andhra Pradesh
66/==/KVZKavali (4)X  21:01+5121:02+511m221384.07621mSCRKavali, Andhra Pradesh
67/==/BTTRBitragunta (2)X  21:15-21:16-1m221400.54515mSCRBitragunta, Andhra Pradesh
68/==/NLRNellore (4)X  22:02+3922:03+391m321434.81721mSCRNellore, Andhra Pradesh
69/==/GDRGudur Junction (3)  00:18+100:20+32m131473.36919mSCRGudur, Andhra Pradesh
70/==/NYPNayadupeta (3)  00:44+900:45+101m231501.06833mSRNayudupeta, Andhra Pradesh
71/==/SPESullurupeta (3)  01:09+1201:10+131m231528.2479mSR524121., Andhra Pradesh
72/==/MASChennai Central (12)↵¶02:55+603:25+830m531610.6579mSRChennai 600003, Tamil Nadu
73/==/TRLTiruvallur (6)  04:09+1204:10+131m--31652.36550mSRTiruvallur, Tamil Nadu
74/==/AJJArakkonam Junction (8)X  04:35+1304:40+115m--31679.36891mSRArakkonam, Tamil Nadu
75/==/MCNMukundarayapuram (2)  05:19+905:20+111m--31723.533198mSRSipcot Ranipet, Tamil Nadu
76/==/KPDKatpadi Junction (5)  05:50+005:55+75m131740.177213mSRVellore 632007, Tamil Nadu
77/==/GYMGudiyattam (3)  06:14+606:15+81m331764.691269mSRVellore, Tamil Nadu
78/==/VNVaniyambadiXO  06:44+1106:45+121m--31808.428357mSRVaniyambadi, Tamil Nadu
79/==/JTJJolarpettai Junction (5)O  07:18+107:20+42m--31823.943405mSRJolarpettai, Tamil Nadu
80/==/TPTTirupattur (2)  07:30+1007:32+102m--31831.173392mSRTirupattur ph.no. 04179-220062, Tamil Nadu
81/==/SLYSamalpatti  07:50 07:51+1207:52+142 1m--31854.390388mSRSamalpatti ph.no. 04341-245601, Tamil Nadu
82/==/BQIBommidiX  08:23+2208:25+262m--31900.9520mSRBommidi ph.no. 04346-244441, Tamil Nadu
83/==/SASalem Junction (6)XO  09:00 09:15+1609:05 09:20+165m--31944.261283mSRSalem, Tamil Nadu
84/==/EDErode Junction (4)X  10:15 10:20+1710:25 10:30+3010m232005.570175mSRErode ph.no: 0424-2256111, Tamil Nadu
85/==/TUPTiruppur (2)  11:03 11:13+3411:05 11:15+342m132055.743305mSRTiruppur. Ph:0421-2200450, Tamil Nadu
86/==/CBECoimbatore Main Junction (6)X  12:08 12:25+1612:10 12:30+192 5m--32106.239416mSRCoimbatore 641001, Tamil Nadu
87/==/PGTPalakkad Junction (4)X  13:30 13:55+1013:35 14:00+125m--32161.53684mSRPalghat Tel: 0491 2555231, Kerala
88/==/SRRShoranur Junction (7)X14:40 15:15+1615:25+3045 10m532206.14226mSRShoranur ph.no 0466-2222913, Kerala
89/==/TCRThrissur (4)X  16:27 16:12+2916:30 16:15+293m132239.1606mSRThrissur Tel: 0487 2423150, Kerala
90/==/AWYAluva (3)XO  17:18 17:10+3217:20 17:12+322m132293.71712mSRPh: 0484-2624141, Kerala
91/-=/ERSErnakulam Junction (South) (6)  18:26 18:20+1218:30 18:25+154 5m432313.1413mSRErnakulam 682016, Kerala
92/--/TUVRTuravur (2)  19:04 18:59+3119:05 19:00+321m132336.5665mSRThuravoor, Kerala
93/--/SRTLCherthala (3)O  19:19 19:09+3419:20 19:10+361m232346.5737mSRPh: 0478- 2812500, Kerala
94/--/MAKMMararikkulam (1)X  19:25 19:19+4819:45 19:20+5520 1m132357.41312mSRMararikulam, Kerala
95/--/ALLPAlappuzha (3)•  20:20+10-332370.6-8mSRPh:0477-2253965, Kerala
Scroll to Top
Scroll to Bottom


Go to Mobile site